Tracking 29799 objects as of 11-Oct-2024
HD Live streaming from Space Station
objects crossing your sky now

COSMOS 873

Track COSMOS 873 now!
10-day predictions
COSMOS 873 is classified as:


NORAD ID: 9590
Int'l Code: 1976-118C
Perigee: 1,471.2 km
Apogee: 1,502.2 km
Inclination: 74.0 °
Period: 115.5 minutes
Semi major axis: 7857 km
RCS: 0.696 m2 (medium)
Launch date: December 7, 1976
Source: Commonwealth of Independent States (former USSR) (CIS)
Launch site: PLESETSK MISSILE AND SPACE COMPLEX (PKMTR)
Your satellite tracking list
Your tracking list is empty




NASA's NSSDC Master Catalog

Two Line Element Set (TLE):
1 09590U 76118C   24284.32516446  .00000019  00000-0  24169-3 0  9992
2 09590  74.0305 221.4635 0019720  95.1491  24.6321 12.46403050176743
Source of the keplerian elements: AFSPC